Simultaneous Nadir Overpasses (SNOs) Predictions

Prediction of SNOs between NOAA-19 and TERRA Satellite Orbit:

Table of predicted SNOs for the next 14.0 days since TLE Epoch: 7/11/2015
Index Date (NOAA-19) Time (NOAA-19) Lat,Lon (NOAA-19) SZA (NOAA-19 ) Date (TERRA) Time (TERRA) Lat,Lon (TERRA) SZA (TERRA ) Distance(km) Time Diff (sec)
1 07/11/2015 04:53:14 72.23, 110.62 50.02 07/11/2015 04:54:17 72.23, 110.66 50.01 1.58 63
2 07/11/2015 05:44:09 -72.10, -81.85 130.11 07/11/2015 05:43:47 -72.11, -81.91 130.11 2.18 22
3 07/13/2015 10:27:31 -72.20,-152.85 129.71 07/13/2015 10:28:04 -72.17,-152.87 129.74 2.93 33
4 07/13/2015 11:18:33 72.08, 14.63 50.18 07/13/2015 11:17:31 72.08, 14.61 50.17 0.90 62
5 07/15/2015 15:11:04 -72.85, 135.00 128.75 07/15/2015 15:12:12 -72.71, 137.04 128.85 69.02 68
6 07/15/2015 16:01:54 72.16, -56.33 50.59 07/15/2015 16:01:48 72.13, -56.38 50.56 3.29 6
7 07/15/2015 16:52:36 -71.31, 112.55 130.23 07/15/2015 16:51:30 -71.38, 109.97 130.21 92.02 66
8 07/17/2015 20:45:15 72.25,-127.30 51.04 07/17/2015 20:46:04 72.23,-127.27 51.02 1.91 49
9 07/17/2015 21:36:12 -72.12, 40.20 129.08 07/17/2015 21:35:34 -72.12, 40.16 129.09 1.30 38
10 07/20/2015 02:19:34 -72.23, -30.81 128.58 07/20/2015 02:19:50 -72.21, -30.75 128.60 3.20 16
11 07/20/2015 03:10:31 71.96, 136.98 51.16 07/20/2015 03:09:19 72.00, 136.52 51.19 16.62 72
12 07/22/2015 07:02:55 -72.30,-101.74 128.10 07/22/2015 07:04:06 -72.30,-101.67 128.10 2.31 71
13 07/22/2015 07:53:55 72.20, 65.69
